Sioux City, IA

5:58 AM CDT on July 24, 2017 (GMT -0500)
Sioux Gateway

Weather History for KSUX - April, 2014

Change the Weather History Date:

Sunday, April 6, 2014

  Actual Average Record
Temperature  
Mean Temperature 52 °F 46 °F  
Max Temperature 68 °F 58 °F 91 °F (1991)
Min Temperature 35 °F 33 °F 12 °F (1982)
Degree Days  
Heating Degree Days 13 20  
Month to date heating degree days 159 124  
Since 1 July heating degree days 6743 6302  
Cooling Degree Days 0 0  
Month to date cooling degree days 0 0  
Year to date cooling degree days 0 0  
Growing Degree Days 2 (Base 50)    
Moisture  
Dew Point 37 °F    
Average Humidity 58    
Maximum Humidity 82    
Minimum Humidity 34    
Precipitation  
Precipitation 0.02 in 0.09 in 0.64 in (1919)
Month to date precipitation 0.66 0.52  
Year to date precipitation 1.81 3.81  
Snow  
Snow 0.00 in 0.10 in 6.30 in (2003)
Month to date snowfall 3.5 0.6  
Since 1 July snowfall 22.0 33.6  
Snow Depth 0.00 in    
Sea Level Pressure  
Sea Level Pressure 29.88 in    
Wind  
Wind Speed 10 mph (South)    
Max Wind Speed 22 mph    
Max Gust Speed 26 mph    
Visibility 9 miles    
Events Rain    
T = Trace of Precipitation, MM = Missing Value Source: NWS Daily Summary

Daily Weather History Graph

Daily Weather History Graph

Search for Another Location

Airport or City:

Trip Planner

Search our weather history database for the weather conditions in past years. The results will help you decide how hot, cold, wet, or windy it might be!

Date:

Astronomy

Apr. 06, 2014 Rise Set
Actual Time 6:59 AM CDT 7:57 PM CDT
Civil Twilight 6:30 AM CDT 8:25 PM CDT
Nautical Twilight 5:56 AM CDT 8:59 PM CDT
Astronomical Twilight 5:21 AM CDT 9:35 PM CDT
Moon 11:57 AM CDT (4/6) 1:57 AM CDT (4/6)
Length of Visible Light 13h 55m
Length of Day
12h 57m
Waxing Crescent, 44% of the Moon is Illuminated
Apr 6
Waxing Crescent
Apr 7
First Quarter
Apr 15
Full
Apr 22
Last Quarter
Apr 29
New

Hourly Weather History & Observations

Time (CDT) Temp. Windchill Dew Point Humidity Pressure Visibility Wind Dir Wind Speed Gust Speed Precip Events Conditions
12:52 AM 37.9 °F 32.7 °F 30.0 °F 73% 29.94 in 10.0 mi East 6.9 mph - N/A   Clear
1:52 AM 37.0 °F 31.6 °F 30.0 °F 76% 29.93 in 10.0 mi SSE 6.9 mph - N/A   Clear
2:52 AM 36.0 °F 31.1 °F 30.0 °F 79% 29.92 in 10.0 mi ESE 5.8 mph - N/A   Clear
3:52 AM 39.0 °F 32.8 °F 30.9 °F 73% 29.91 in 10.0 mi SSE 9.2 mph - N/A   Partly Cloudy
4:52 AM 37.0 °F 31.0 °F 30.9 °F 79% 29.91 in 10.0 mi ESE 8.1 mph - N/A   Clear
5:52 AM 44.1 °F 37.7 °F 33.1 °F 65% 29.91 in 8.0 mi South 12.7 mph - N/A   Partly Cloudy
6:52 AM 46.0 °F 43.1 °F 34.0 °F 63% 29.91 in 7.0 mi SE 5.8 mph - N/A   Overcast
7:52 AM 46.0 °F 43.1 °F 36.0 °F 68% 29.94 in 5.0 mi South 5.8 mph - N/A   Haze
8:52 AM 46.0 °F 43.9 °F 37.0 °F 71% 29.95 in 6.0 mi SSE 4.6 mph - N/A   Haze
9:52 AM 48.0 °F - 37.0 °F 66% 29.94 in 5.0 mi SSE 6.9 mph - N/A   Haze
10:52 AM 55.0 °F - 41.0 °F 59% 29.93 in 8.0 mi SW 8.1 mph - N/A   Scattered Clouds
11:52 AM 60.8 °F - 42.8 °F 52% 29.90 in 10.0 mi WSW 11.5 mph - N/A   Scattered Clouds
12:52 PM 64.0 °F - 39.9 °F 41% 29.88 in 10.0 mi SW 16.1 mph 21.9 mph N/A   Overcast
1:52 PM 64.9 °F - 37.9 °F 37% 29.86 in 10.0 mi SW 13.8 mph - N/A   Partly Cloudy
2:52 PM 64.9 °F - 37.9 °F 37% 29.83 in 10.0 mi SSW 15.0 mph 23.0 mph N/A   Partly Cloudy
3:52 PM 66.9 °F - 37.0 °F 33% 29.81 in 10.0 mi SSW 9.2 mph 19.6 mph N/A   Partly Cloudy
4:52 PM 64.9 °F - 37.9 °F 37% 29.80 in 10.0 mi SSW 11.5 mph - N/A   Overcast
5:52 PM 63.0 °F - 39.9 °F 43% 29.80 in 10.0 mi South 11.5 mph - N/A   Overcast
6:52 PM 62.1 °F - 37.9 °F 41% 29.79 in 10.0 mi South 17.3 mph - N/A   Scattered Clouds
7:52 PM 55.9 °F - 39.0 °F 53% 29.82 in 10.0 mi South 17.3 mph - N/A   Clear
8:52 PM 55.0 °F - 39.9 °F 57% 29.86 in 10.0 mi South 13.8 mph - N/A   Mostly Cloudy
9:25 PM 55.0 °F - 39.9 °F 57% 29.87 in 10.0 mi NW 17.3 mph 23.0 mph N/A   Overcast
9:52 PM 50.0 °F - 46.0 °F 86% 29.89 in 10.0 mi West 5.8 mph - 0.02 in Rain Light Rain
10:52 PM 48.9 °F - 45.0 °F 86% 29.86 in 10.0 mi South 11.5 mph - 0.00 in   Overcast
11:52 PM 48.0 °F - 41.0 °F 77% 29.84 in 10.0 mi South 4.6 mph - N/A   Scattered Clouds